Time,TemperatureF,DewpointF,PressureIn,WindDirection,WindDirectionDegrees,WindSpeedMPH,WindSpeedGustMPH,Humidity,HourlyPrecipIn,Conditions,Clouds,dailyrainin,SolarRadiationWatts/m^2,SoftwareType,DateUTC
2013-02-22 00:05:00,38.1,36.0,30.13,SE,143,0.0,-999.0,93,-99.99,,,0.00,0,weatherlink.com 1.10,2013-02-22 08:05:00,
2013-02-22 00:20:00,37.1,35.0,30.13,SE,143,0.0,-999.0,92,-99.99,,,0.00,0,weatherlink.com 1.10,2013-02-22 08:20:00,
2013-02-22 00:35:00,36.9,35.0,30.14,SE,143,0.0,-999.0,93,-99.99,,,0.00,0,weatherlink.com 1.10,2013-02-22 08:35:00,
2013-02-22 00:50:00,36.6,35.0,30.14,SE,143,0.0,-999.0,93,-99.99,,,0.00,0,weatherlink.com 1.10,2013-02-22 08:50:00,
2013-02-22 01:05:00,36.3,35.0,30.14,SE,144,0.0,-999.0,93,-99.99,,,0.00,0,weatherlink.com 1.10,2013-02-22 09:05:00,
2013-02-22 01:21:00,35.7,34.0,30.15,SE,143,0.0,-999.0,93,-99.99,,,0.00,0,weatherlink.com 1.10,2013-02-22 09:21:00,
2013-02-22 01:35:00,35.6,34.0,30.15,SE,144,0.0,-999.0,93,-99.99,,,0.00,0,weatherlink.com 1.10,2013-02-22 09:35:00,
2013-02-22 01:50:00,35.0,33.0,30.16,SE,144,0.0,-999.0,93,-99.99,,,0.00,0,weatherlink.com 1.10,2013-02-22 09:50:00,
2013-02-22 02:05:00,35.1,33.0,30.16,SE,144,0.0,-999.0,93,-99.99,,,0.00,0,weatherlink.com 1.10,2013-02-22 10:05:00,
2013-02-22 02:21:00,35.0,33.0,30.15,SE,143,0.0,-999.0,93,-99.99,,,0.00,0,weatherlink.com 1.10,2013-02-22 10:21:00,
2013-02-22 02:35:00,35.0,34.0,30.15,SE,144,0.0,-999.0,94,-99.99,,,0.00,0,weatherlink.com 1.10,2013-02-22 10:35:00,
2013-02-22 02:51:00,34.9,33.0,30.15,SE,144,0.0,-999.0,94,-99.99,,,0.00,0,weatherlink.com 1.10,2013-02-22 10:51:00,
2013-02-22 03:05:00,34.9,33.0,30.15,SE,144,0.0,-999.0,94,-99.99,,,0.00,0,weatherlink.com 1.10,2013-02-22 11:05:00,
2013-02-22 03:20:00,34.8,33.0,30.15,SE,144,0.0,-999.0,94,-99.99,,,0.00,0,weatherlink.com 1.10,2013-02-22 11:20:00,
2013-02-22 03:36:00,34.8,33.0,30.15,SE,143,0.0,-999.0,94,-99.99,,,0.00,0,weatherlink.com 1.10,2013-02-22 11:36:00,
2013-02-22 03:51:00,34.4,33.0,30.15,SE,143,0.0,-999.0,94,-99.99,,,0.00,0,weatherlink.com 1.10,2013-02-22 11:51:00,
2013-02-22 04:06:00,34.1,33.0,30.15,SE,143,0.0,-999.0,94,-99.99,,,0.00,0,weatherlink.com 1.10,2013-02-22 12:06:00,
2013-02-22 04:21:00,33.9,32.0,30.16,ESE,102,0.0,-999.0,94,-99.99,,,0.00,0,weatherlink.com 1.10,2013-02-22 12:21:00,
2013-02-22 04:36:00,34.1,33.0,30.16,ESE,102,0.0,-999.0,94,-99.99,,,0.00,0,weatherlink.com 1.10,2013-02-22 12:36:00,
2013-02-22 04:51:00,33.5,32.0,30.16,ESE,102,0.0,-999.0,94,-99.99,,,0.00,0,weatherlink.com 1.10,2013-02-22 12:51:00,
2013-02-22 05:06:00,33.3,32.0,30.17,ESE,102,0.0,-999.0,94,-99.99,,,0.01,0,weatherlink.com 1.10,2013-02-22 13:06:00,
2013-02-22 05:21:00,33.0,32.0,30.17,ESE,102,0.0,-999.0,94,-99.99,,,0.01,0,weatherlink.com 1.10,2013-02-22 13:21:00,
2013-02-22 05:36:00,33.0,32.0,30.17,ESE,102,0.0,-999.0,95,-99.99,,,0.01,0,weatherlink.com 1.10,2013-02-22 13:36:00,
2013-02-22 05:51:00,33.0,32.0,30.18,ESE,102,0.0,-999.0,94,-99.99,,,0.01,0,weatherlink.com 1.10,2013-02-22 13:51:00,
2013-02-22 06:06:00,32.5,31.0,30.18,ESE,102,0.0,-999.0,94,-99.99,,,0.01,0,weatherlink.com 1.10,2013-02-22 14:06:00,
2013-02-22 06:21:00,32.3,31.0,30.19,ESE,102,0.0,-999.0,94,-99.99,,,0.01,0,weatherlink.com 1.10,2013-02-22 14:21:00,
2013-02-22 06:36:00,32.2,31.0,30.20,ESE,102,0.0,-999.0,95,-99.99,,,0.01,9,weatherlink.com 1.10,2013-02-22 14:36:00,
2013-02-22 06:51:00,32.3,31.0,30.20,ESE,102,0.0,-999.0,95,-99.99,,,0.01,19,weatherlink.com 1.10,2013-02-22 14:51:00,
2013-02-22 07:06:00,33.2,32.0,30.21,ESE,102,0.0,-999.0,95,-99.99,,,0.01,51,weatherlink.com 1.10,2013-02-22 15:06:00,
2013-02-22 07:21:00,34.8,34.0,30.21,ESE,102,0.0,-999.0,96,-99.99,,,0.01,123,weatherlink.com 1.10,2013-02-22 15:21:00,
2013-02-22 07:36:00,35.6,35.0,30.22,ESE,102,0.0,-999.0,96,-99.99,,,0.01,183,weatherlink.com 1.10,2013-02-22 15:36:00,
2013-02-22 07:51:00,37.5,37.0,30.22,ESE,102,0.0,-999.0,96,-99.99,,,0.01,250,weatherlink.com 1.10,2013-02-22 15:51:00,
2013-02-22 08:06:00,39.5,39.0,30.23,ESE,102,0.0,-999.0,96,-99.99,,,0.01,306,weatherlink.com 1.10,2013-02-22 16:06:00,
2013-02-22 08:22:00,41.4,40.0,30.23,ESE,102,0.0,-999.0,96,-99.99,,,0.01,357,weatherlink.com 1.10,2013-02-22 16:22:00,
2013-02-22 08:36:00,43.7,43.0,30.23,ESE,102,0.0,-999.0,96,-99.99,,,0.01,425,weatherlink.com 1.10,2013-02-22 16:36:00,
2013-02-22 08:51:00,45.5,45.0,30.23,ESE,102,0.0,-999.0,96,-99.99,,,0.01,476,weatherlink.com 1.10,2013-02-22 16:51:00,
2013-02-22 09:07:00,47.6,46.0,30.23,ESE,102,0.0,-999.0,95,-99.99,,,0.01,524,weatherlink.com 1.10,2013-02-22 17:07:00,
2013-02-22 09:22:00,49.5,48.0,30.23,ESE,102,0.0,-999.0,94,-99.99,,,0.01,566,weatherlink.com 1.10,2013-02-22 17:22:00,
2013-02-22 09:37:00,51.9,49.0,30.24,ESE,102,0.0,-999.0,89,-99.99,,,0.01,605,weatherlink.com 1.10,2013-02-22 17:37:00,
2013-02-22 09:52:00,54.7,49.0,30.23,ESE,102,0.0,-999.0,81,-99.99,,,0.01,638,weatherlink.com 1.10,2013-02-22 17:52:00,
2013-02-22 10:07:00,56.6,46.0,30.23,WSW,254,0.0,-999.0,69,-99.99,,,0.01,675,weatherlink.com 1.10,2013-02-22 18:07:00,
2013-02-22 10:22:00,58.2,46.0,30.23,West,259,2.0,-999.0,65,-99.99,,,0.01,705,weatherlink.com 1.10,2013-02-22 18:22:00,
2013-02-22 10:37:00,59.3,43.0,30.23,West,269,2.0,-999.0,56,-99.99,,,0.01,729,weatherlink.com 1.10,2013-02-22 18:37:00,
2013-02-22 10:52:00,60.2,44.0,30.22,SW,233,5.0,-999.0,55,-99.99,,,0.01,751,weatherlink.com 1.10,2013-02-22 18:52:00,
2013-02-22 11:07:00,60.7,44.0,30.22,West,271,0.0,-999.0,54,-99.99,,,0.01,770,weatherlink.com 1.10,2013-02-22 19:07:00,
2013-02-22 11:23:00,61.6,45.0,30.21,SW,224,0.0,-999.0,54,-99.99,,,0.01,773,weatherlink.com 1.10,2013-02-22 19:23:00,
2013-02-22 11:38:00,62.0,44.0,30.20,SW,216,5.0,-999.0,53,-99.99,,,0.01,784,weatherlink.com 1.10,2013-02-22 19:38:00,
2013-02-22 11:52:00,62.5,46.0,30.20,WNW,283,3.0,-999.0,56,-99.99,,,0.01,786,weatherlink.com 1.10,2013-02-22 19:52:00,
2013-02-22 12:07:00,62.5,46.0,30.19,WNW,287,1.0,-999.0,55,-99.99,,,0.01,782,weatherlink.com 1.10,2013-02-22 20:07:00,
2013-02-22 12:22:00,63.2,48.0,30.19,WSW,258,6.0,-999.0,57,-99.99,,,0.01,777,weatherlink.com 1.10,2013-02-22 20:22:00,
2013-02-22 12:37:00,63.2,48.0,30.18,SW,233,5.0,-999.0,57,-99.99,,,0.01,765,weatherlink.com 1.10,2013-02-22 20:37:00,
2013-02-22 12:53:00,63.6,48.0,30.18,West,269,5.0,-999.0,57,-99.99,,,0.01,749,weatherlink.com 1.10,2013-02-22 20:53:00,
2013-02-22 13:07:00,64.0,48.0,30.17,WSW,251,3.0,-999.0,56,-99.99,,,0.01,733,weatherlink.com 1.10,2013-02-22 21:07:00,
2013-02-22 13:22:00,63.5,46.0,30.16,West,265,3.0,-999.0,53,-99.99,,,0.01,714,weatherlink.com 1.10,2013-02-22 21:22:00,
2013-02-22 13:38:00,64.1,43.0,30.16,WSW,257,7.0,-999.0,47,-99.99,,,0.01,689,weatherlink.com 1.10,2013-02-22 21:38:00,
2013-02-22 13:53:00,63.9,43.0,30.15,SSW,212,7.0,-999.0,46,-99.99,,,0.01,661,weatherlink.com 1.10,2013-02-22 21:53:00,
2013-02-22 14:08:00,64.4,43.0,30.15,WSW,243,1.0,-999.0,46,-99.99,,,0.01,628,weatherlink.com 1.10,2013-02-22 22:08:00,
2013-02-22 14:23:00,64.2,44.0,30.15,WSW,256,0.0,-999.0,49,-99.99,,,0.01,592,weatherlink.com 1.10,2013-02-22 22:23:00,
2013-02-22 14:38:00,64.2,42.0,30.15,South,179,5.0,-999.0,44,-99.99,,,0.01,555,weatherlink.com 1.10,2013-02-22 22:38:00,
2013-02-22 14:53:00,63.8,40.0,30.15,WSW,255,4.0,-999.0,42,-99.99,,,0.01,519,weatherlink.com 1.10,2013-02-22 22:53:00,
2013-02-22 15:08:00,63.8,42.0,30.16,WSW,248,2.0,-999.0,46,-99.99,,,0.01,478,weatherlink.com 1.10,2013-02-22 23:08:00,
2013-02-22 15:23:00,62.7,44.0,30.15,WSW,250,4.0,-999.0,51,-99.99,,,0.01,429,weatherlink.com 1.10,2013-02-22 23:23:00,
2013-02-22 15:38:00,62.0,43.0,30.16,SW,231,3.0,-999.0,50,-99.99,,,0.01,378,weatherlink.com 1.10,2013-02-22 23:38:00,
2013-02-22 15:53:00,61.9,47.0,30.16,WSW,238,0.0,-999.0,58,-99.99,,,0.01,327,weatherlink.com 1.10,2013-02-22 23:53:00,
2013-02-22 16:08:00,61.6,45.0,30.16,WSW,247,2.0,-999.0,54,-99.99,,,0.01,272,weatherlink.com 1.10,2013-02-23 00:08:00,
2013-02-22 16:23:00,60.8,45.0,30.16,West,272,0.0,-999.0,56,-99.99,,,0.01,214,weatherlink.com 1.10,2013-02-23 00:23:00,
2013-02-22 16:38:00,60.6,45.0,30.17,WSW,252,0.0,-999.0,57,-99.99,,,0.01,151,weatherlink.com 1.10,2013-02-23 00:38:00,
2013-02-22 16:53:00,60.5,45.0,30.16,WSW,239,3.0,-999.0,56,-99.99,,,0.01,88,weatherlink.com 1.10,2013-02-23 00:53:00,
2013-02-22 17:08:00,60.2,44.0,30.17,West,273,0.0,-999.0,56,-99.99,,,0.01,42,weatherlink.com 1.10,2013-02-23 01:08:00,
2013-02-22 17:23:00,59.7,45.0,30.17,West,276,0.0,-999.0,58,-99.99,,,0.01,16,weatherlink.com 1.10,2013-02-23 01:23:00,
2013-02-22 17:38:00,58.2,44.0,30.17,West,276,0.0,-999.0,59,-99.99,,,0.01,7,weatherlink.com 1.10,2013-02-23 01:38:00,
2013-02-22 17:53:00,56.5,44.0,30.18,West,276,0.0,-999.0,63,-99.99,,,0.01,0,weatherlink.com 1.10,2013-02-23 01:53:00,
2013-02-22 18:08:00,55.1,43.0,30.17,West,276,0.0,-999.0,65,-99.99,,,0.01,0,weatherlink.com 1.10,2013-02-23 02:08:00,
2013-02-22 18:23:00,53.3,43.0,30.18,SW,230,0.0,-999.0,67,-99.99,,,0.01,0,weatherlink.com 1.10,2013-02-23 02:23:00,
2013-02-22 18:38:00,51.8,41.0,30.18,SW,230,0.0,-999.0,68,-99.99,,,0.01,0,weatherlink.com 1.10,2013-02-23 02:38:00,
2013-02-22 18:53:00,50.3,42.0,30.19,SW,230,0.0,-999.0,72,-99.99,,,0.01,0,weatherlink.com 1.10,2013-02-23 02:53:00,
2013-02-22 19:08:00,48.9,41.0,30.19,SW,230,0.0,-999.0,74,-99.99,,,0.01,0,weatherlink.com 1.10,2013-02-23 03:08:00,
2013-02-22 19:23:00,47.9,41.0,30.19,SW,228,0.0,-999.0,78,-99.99,,,0.01,0,weatherlink.com 1.10,2013-02-23 03:23:00,
2013-02-22 19:38:00,47.1,41.0,30.19,SW,228,0.0,-999.0,78,-99.99,,,0.01,0,weatherlink.com 1.10,2013-02-23 03:38:00,
2013-02-22 19:53:00,46.2,40.0,30.19,SW,228,0.0,-999.0,80,-99.99,,,0.01,0,weatherlink.com 1.10,2013-02-23 03:53:00,
2013-02-22 20:08:00,45.1,40.0,30.19,SW,228,0.0,-999.0,82,-99.99,,,0.01,0,weatherlink.com 1.10,2013-02-23 04:08:00,
2013-02-22 20:23:00,44.5,39.0,30.20,SW,228,0.0,-999.0,82,-99.99,,,0.01,0,weatherlink.com 1.10,2013-02-23 04:23:00,
2013-02-22 20:38:00,43.6,39.0,30.20,SW,227,0.0,-999.0,84,-99.99,,,0.01,0,weatherlink.com 1.10,2013-02-23 04:38:00,
2013-02-22 20:53:00,43.0,39.0,30.20,SW,226,0.0,-999.0,85,-99.99,,,0.01,0,weatherlink.com 1.10,2013-02-23 04:53:00,
2013-02-22 21:08:00,42.9,39.0,30.21,SE,131,0.0,-999.0,86,-99.99,,,0.01,0,weatherlink.com 1.10,2013-02-23 05:08:00,
2013-02-22 21:23:00,42.0,38.0,30.21,SE,128,0.0,-999.0,86,-99.99,,,0.01,0,weatherlink.com 1.10,2013-02-23 05:23:00,
2013-02-22 21:53:00,40.9,37.0,30.22,SE,127,0.0,-999.0,87,-99.99,,,0.01,0,weatherlink.com 1.10,2013-02-23 05:53:00,
2013-02-22 22:08:00,40.6,37.0,30.22,SE,127,0.0,-999.0,88,-99.99,,,0.01,0,weatherlink.com 1.10,2013-02-23 06:08:00,
2013-02-22 22:23:00,39.8,37.0,30.22,SE,127,0.0,-999.0,88,-99.99,,,0.01,0,weatherlink.com 1.10,2013-02-23 06:23:00,
2013-02-22 22:38:00,39.3,36.0,30.22,SE,127,0.0,-999.0,88,-99.99,,,0.01,0,weatherlink.com 1.10,2013-02-23 06:38:00,
2013-02-22 22:53:00,39.1,36.0,30.22,ENE,75,1.0,-999.0,89,-99.99,,,0.01,0,weatherlink.com 1.10,2013-02-23 06:53:00,
2013-02-22 23:08:00,39.0,36.0,30.22,ENE,76,0.0,-999.0,89,-99.99,,,0.01,0,weatherlink.com 1.10,2013-02-23 07:08:00,
2013-02-22 23:23:00,38.6,36.0,30.21,ENE,76,0.0,-999.0,89,-99.99,,,0.01,0,weatherlink.com 1.10,2013-02-23 07:23:00,
2013-02-22 23:39:00,38.1,36.0,30.21,ENE,76,0.0,-999.0,90,-99.99,,,0.01,0,weatherlink.com 1.10,2013-02-23 07:39:00,
2013-02-22 23:53:00,38.1,36.0,30.21,ENE,69,0.0,-999.0,90,-99.99,,,0.01,0,weatherlink.com 1.10,2013-02-23 07:53:00,